This demonstration page uses our WeatherBlox Daily Observations layout. Learn more.

Left ArrowRight Arrow

39.92423, -83.80882

Hourly Observations for June 1, 2022

Temp ( °F °C ) Dew Point ( °F °C ) Humidity (%) Winds ( mph kmh ) Pressure ( in mb ) Visibility ( mi km ) Precip ( " mm )
12:56 am 00:56 Clear 72 22.2 69 20.6 91 91 Calm 30.01 1016 10 16 0.00 0.00
1:56 am 01:56 Clear 70 21.1 70 21.1 100 100 SW 6 9 30.01 1016 10 16 0.00 0.00
2:56 am 02:56 Clear 69 20.6 69 20.6 100 100 SSW 6 9 29.99 1016 10 16 0.00 0.00
3:56 am 03:56 Clear 70 21 N/A N/A SSW 6 9 29.98 1015 10 16 0.00 0.00
4:56 am 04:56 Clear 66 19 N/A N/A SSW 5 7 29.98 1015 10 16 0.00 0.00
5:56 am 05:56 Clear 66 19 N/A N/A SSW 5 7 30.00 1016 10 16 0.00 0.00
6:56 am 06:56 Sunny 70 21 N/A N/A SSW 5 7 30.01 1016 10 16 0.00 0.00
7:56 am 07:56 Sunny 72 22.2 70 21.1 94 94 SW 9 15 30.01 1016 10 16 0.00 0.00
8:56 am 08:56 Mostly Sunny 76 24.4 69 20.6 79 79 Calm 30.00 1016 8 13 0.00 0.00
9:22 am 09:22 Hazy 79 26 70 21 74 74 S 3 6 29.97 1015 3 4 0.00 0.00
9:38 am 09:38 Hazy 81 27 70 21 70 70 Calm 29.97 1015 4 6 0.00 0.00
9:56 am 09:56 Mostly Sunny 81 27.2 70 21.1 69 69 S 5 7 29.99 1016 N/A 0.00 0.00
10:56 am 10:56 Sunny 83 28.3 69 20.6 63 63 WSW 16 26 29.98 1015 8 13 0.00 0.00
11:56 am 11:56 Mostly Sunny 85 29.4 68 20 57 57 WSW 16 26 29.96 1015 10 16 0.00 0.00
12:56 pm 12:56 Mostly Sunny 86 30 67 19.4 53 53 SW 13 20 29.96 1014 10 16 0.00 0.00
1:56 pm 13:56 undefined 87 30.6 66 18.9 50 50 WSW 17 28 29.93 1014 8 13 0.00 0.00
2:56 pm 14:56 Hazy 89 31.7 66 18.9 47 47 WSW 20 31 29.90 1013 5 8 0.00 0.00
3:52 pm 15:52 Hazy 88 31 66 19 49 49 SW 18 30 29.83 1010 6 10 0.00 0.00
3:56 pm 15:56 Hazy 89 31.7 67 19.4 48 48 SW 15 24 29.88 1012 3 5 0.00 0.00
4:00 pm 16:00 Hazy 88 31 66 19 49 49 SW 15 24 29.83 1010 2 3 0.00 0.00
4:13 pm 16:13 Hazy 88 31 66 19 49 49 WSW 20 31 29.83 1010 4 6 0.00 0.00
4:56 pm 16:56 Partly Cloudy 88 31.1 66 18.9 48 48 SW 22 35 29.87 1011 10 16 0.00 0.00
5:56 pm 17:56 Sunny 87 30.6 67 19.4 51 51 SW 16 26 29.85 1011 10 16 0.00 0.00
6:56 pm 18:56 Mostly Cloudy 81 27.2 67 19.4 62 62 NW 10 17 29.85 1011 10 16 0.00 0.00
7:16 pm 19:16 Cloudy with Thunderstorms 73 23 73 23 100 100 W 12 19 29.85 1011 9 14 0.03 0.76
7:56 pm 19:56 Mostly Cloudy 72 22 N/A N/A NNW 6 9 29.87 1011 10 16 0.03 0.76
8:56 pm 20:56 Cloudy 72 22 N/A N/A Calm 29.86 1011 10 16 0.00 0.00
9:15 pm 21:15 Mostly Cloudy with Nearby Thunderstorms 72 22 N/A N/A NW 6 9 29.85 1011 10 16 0.00 0.00
9:56 pm 21:56 Cloudy with Nearby Thunderstorms N/A N/A N/A NNW 8 13 N/A 10 16 0.16 4.06
10:03 pm 22:03 Cloudy with Nearby Thunderstorms N/A N/A N/A NNW 10 17 N/A 10 16 0.01 0.25
10:42 pm 22:42 Cloudy with Light Rain N/A N/A N/A E 3 6 N/A 8 13 0.06 1.52
10:56 pm 22:56 Cloudy with Heavy Rain N/A N/A N/A NNE 12 19 N/A 6 10 0.14 3.56
11:15 pm 23:15 Cloudy N/A N/A N/A NNE 10 17 N/A 10 16 0.01 0.25
11:56 pm 23:56 Mostly Cloudy N/A N/A N/A NNE 6 9 N/A 10 16 0.01 0.25

Powered by AerisWeather